Date,TemperatureHighF,TemperatureAvgF,TemperatureLowF,DewpointHighF,DewpointAvgF,DewpointLowF,HumidityHigh,HumidityAvg,HumidityLow,PressureMaxIn,PressureMinIn,WindSpeedMaxMPH,WindSpeedAvgMPH,GustSpeedMaxMPH,PrecipitationSumIn
2013-1-1,20,2,-20,17,-2,-24,90,83,71,30.33,30.08,13,2,13,0.00
2013-1-2,21,16,13,19,14,11,94,91,87,30.08,29.96,8,2,9,0.00
2013-1-3,20,12,7,17,9,3,89,86,78,30.27,30.08,11,5,14,0.00
2013-1-4,28,17,4,20,13,1,95,82,70,30.13,30.03,13,4,13,0.00
2013-1-5,24,14,3,16,10,0,94,85,72,30.10,29.86,8,2,10,0.00
2013-1-6,22,13,2,17,10,-1,94,85,72,30.24,30.03,13,2,13,0.00
2013-1-7,36,28,20,28,23,17,94,82,70,30.05,29.89,17,4,19,0.01
2013-1-8,36,25,10,30,22,8,95,88,76,29.96,29.75,16,3,17,0.00
2013-1-9,34,29,18,28,24,15,93,80,69,30.34,29.91,21,5,22,0.00
2013-1-10,40,35,29,34,28,24,98,77,54,30.28,29.70,14,5,14,0.30
2013-1-11,41,37,34,40,37,34,99,99,98,29.70,29.34,13,3,13,0.02
2013-1-12,38,15,4,38,11,0,99,83,73,30.08,29.34,25,10,25,0.00
2013-1-13,10,5,2,5,0,-2,87,83,76,30.27,30.05,11,3,13,0.00
2013-1-14,14,7,1,11,4,-1,92,85,71,30.43,30.27,13,3,14,0.00
2013-1-15,31,21,10,21,15,7,90,78,63,30.31,29.85,16,4,17,0.00
2013-1-16,37,26,10,34,22,4,96,84,66,30.21,29.67,17,4,18,0.01
2013-1-17,20,11,2,13,5,-3,90,77,63,30.41,30.20,11,2,12,0.00
2013-1-18,42,31,17,34,26,13,94,84,73,30.30,29.72,14,5,14,0.01
2013-1-19,39,24,2,34,20,-3,97,83,63,30.22,29.65,25,5,29,0.00
2013-1-20,10,4,-2,3,-3,-8,86,75,63,30.41,30.22,16,4,16,0.00
2013-1-21,-2,-6,-11,-8,-12,-17,86,75,67,30.39,30.30,15,4,18,0.00
2013-1-22,7,-2,-11,0,-8,-15,85,76,67,30.46,30.28,8,2,8,0.00
2013-1-23,17,8,-4,12,1,-14,90,72,56,30.62,30.18,16,3,16,0.00
2013-1-24,15,4,-6,7,-6,-14,73,64,51,30.69,30.21,13,4,14,0.00
2013-1-25,20,13,2,15,6,-2,83,74,60,30.31,29.98,20,5,22,0.00
2013-1-26,25,13,-4,14,5,-7,89,72,56,30.37,30.12,11,3,14,0.00
2013-1-27,32,31,25,32,25,15,97,80,60,30.12,29.76,14,3,14,0.06
2013-1-28,36,32,31,35,32,30,98,98,97,29.86,29.58,11,2,11,0.11
2013-1-29,35,32,28,33,30,24,98,94,84,29.70,29.47,12,2,12,0.06
2013-1-30,28,18,9,24,13,4,86,82,76,29.75,29.59,13,4,15,0.00
2013-1-31,9,0,-8,5,-4,-14,85,79,73,30.31,29.75,18,6,18,0.00
2013-2-1,9,-1,-12,7,-7,-16,89,76,61,30.36,30.07,14,3,14,0.00
2013-2-2,14,8,2,9,4,-1,89,81,63,30.20,29.98,6,1,6,0.00
2013-2-3,14,11,4,10,6,0,89,83,69,30.11,29.96,11,2,11,0.00
2013-2-4,20,9,-9,14,3,-12,91,78,51,30.08,29.78,12,1,13,0.00
2013-2-5,30,20,-8,27,16,-11,96,86,67,30.08,29.67,14,2,14,0.00
2013-2-6,30,14,-8,24,11,-12,93,87,78,30.12,29.93,14,3,14,0.00
2013-2-7,27,25,20,25,23,19,95,90,83,30.23,29.97,11,1,11,0.00
2013-2-8,28,24,22,22,20,17,88,83,70,30.35,30.21,11,2,11,0.00
2013-2-9,33,29,25,29,26,22,94,89,85,30.21,29.90,16,5,16,0.00
2013-2-10,34,31,28,34,30,26,98,96,91,29.90,29.22,19,6,19,0.09
2013-2-11,31,24,14,30,21,11,98,89,81,30.03,29.30,11,4,13,0.00
2013-2-12,36,24,12,31,20,9,93,84,70,30.04,29.80,12,4,15,0.02
2013-2-13,38,28,15,36,25,13,97,91,80,29.80,29.53,7,2,9,0.19
2013-2-14,32,24,8,29,18,3,98,80,59,30.16,29.69,11,2,13,0.00
2013-2-15,17,8,-6,8,2,-8,89,78,63,30.31,30.16,10,2,11,0.00
2013-2-16,22,6,-8,10,1,-11,90,79,58,30.28,30.13,6,1,6,0.00
2013-2-17,33,22,6,25,16,3,90,79,67,30.14,29.60,20,6,20,0.00
2013-2-18,34,23,5,32,19,2,93,84,78,29.79,29.50,15,5,17,0.00
2013-2-19,5,2,-7,2,-4,-12,88,78,66,30.40,29.80,16,5,16,0.00
2013-2-20,17,1,-18,6,-5,-22,85,76,58,30.50,30.40,7,1,7,0.00
2013-2-21,21,12,-5,14,6,-8,89,77,65,30.46,30.05,11,3,12,0.00
2013-2-22,33,23,18,25,20,14,95,88,67,30.05,29.84,11,2,13,0.03
2013-2-23,26,19,16,22,16,14,93,90,82,29.87,29.84,8,4,8,0.00
2013-2-24,27,22,16,22,18,11,89,85,73,30.11,30.08,1,0,2,0.06
2013-2-25,41,26,8,30,21,6,94,83,60,30.10,30.00,4,0,4,0.03
2013-2-26,39,26,5,30,21,2,95,83,66,30.03,29.84,9,1,10,0.01
2013-2-27,40,32,26,28,26,23,87,78,58,29.99,29.83,15,2,15,0.00
2013-2-28,32,28,24,24,22,18,87,77,68,30.18,29.99,9,1,9,0.00
2013-3-1,32,24,9,21,16,6,95,73,60,30.33,30.18,9,1,9,0.00
2013-3-2,33,15,-5,15,6,-8,91,71,39,30.35,30.18,9,1,9,0.00
2013-3-3,33,25,13,16,12,8,81,60,44,30.18,29.95,15,4,18,0.00
2013-3-4,27,24,22,23,20,15,95,83,61,30.01,29.91,20,7,20,0.00
2013-3-5,32,26,20,28,23,17,96,90,76,30.28,29.95,8,3,10,0.03
2013-3-6,31,19,-7,21,14,-10,91,81,63,30.40,30.27,8,1,8,0.00
2013-3-7,31,16,-8,22,10,-12,91,79,65,30.39,30.29,11,3,14,0.00
2013-3-8,42,29,13,31,24,11,93,82,63,30.33,30.06,12,4,15,0.01
2013-3-9,37,35,34,36,34,30,99,96,82,30.06,29.65,16,4,16,0.89
2013-3-10,36,33,29,34,31,28,99,92,84,29.90,29.72,16,3,16,0.04
2013-3-11,31,27,20,28,23,16,96,85,72,29.83,29.71,9,3,9,0.00
2013-3-12,28,24,17,22,18,13,90,78,65,30.18,29.81,13,4,20,0.00
2013-3-13,29,18,5,20,13,3,92,80,61,30.39,30.18,9,2,10,0.01
2013-3-14,44,30,23,31,25,19,95,80,55,30.25,29.99,10,2,11,0.08
2013-3-15,35,31,24,32,29,22,95,92,89,29.99,29.77,9,2,11,0.01
2013-3-16,27,22,12,26,16,7,94,79,59,30.22,29.85,13,3,13,0.00
2013-3-17,28,18,7,23,10,2,83,71,60,30.26,29.88,15,5,17,0.00
2013-3-18,30,21,11,29,18,7,96,87,79,29.88,29.61,25,9,28,0.00
2013-3-19,22,12,5,10,4,0,85,71,50,30.24,29.85,16,6,17,0.00
2013-3-20,20,12,5,7,2,-2,77,67,55,30.27,30.15,16,5,16,0.00
2013-3-21,28,10,-10,14,2,-14,89,72,51,30.17,30.06,7,1,8,0.00
2013-3-22,38,16,-5,19,8,-8,90,72,42,30.14,30.06,6,1,6,0.00
2013-3-23,36,24,6,22,17,3,92,76,51,30.18,30.09,6,1,6,0.00
2013-3-24,37,29,19,26,23,17,93,79,57,30.11,29.96,12,1,12,0.00
2013-3-25,38,30,22,24,20,17,84,67,48,30.22,30.03,10,2,14,0.00
2013-3-26,36,26,15,25,20,13,92,80,62,30.31,30.22,9,3,9,0.00
2013-3-27,41,25,7,27,16,5,94,72,42,30.37,30.30,7,1,7,0.00
2013-3-28,44,29,14,29,22,12,95,75,50,30.35,30.27,8,1,9,0.00
2013-3-29,50,38,25,38,31,22,92,79,59,30.28,30.04,10,2,10,0.00
2013-3-30,50,41,33,44,37,32,97,86,72,30.04,29.82,14,4,15,0.02
2013-3-31,39,33,23,32,26,17,97,79,50,30.08,29.79,14,5,16,0.01
2013-4-1,34,25,17,21,17,13,83,72,52,30.27,30.08,11,3,13,0.00
2013-4-2,37,26,16,22,17,12,93,72,41,30.36,30.26,9,2,12,0.00
2013-4-3,46,32,14,33,23,12,95,73,48,30.40,30.05,17,4,18,0.00
2013-4-4,51,41,28,38,31,23,87,68,43,30.12,29.98,17,4,21,0.00
2013-4-5,42,32,20,33,26,18,97,83,50,30.20,29.84,21,5,23,0.07
2013-4-6,57,43,36,47,37,31,95,80,65,29.84,29.44,19,5,22,0.10
2013-4-7,49,40,34,42,36,32,96,86,72,29.90,29.70,12,3,12,0.20
2013-4-8,50,43,39,46,41,38,99,93,80,29.97,29.62,12,2,15,0.17
2013-4-9,41,37,32,38,35,30,98,91,74,30.09,29.90,10,3,15,0.76
2013-4-10,37,33,29,32,29,26,97,87,69,30.14,29.85,16,4,18,0.14
2013-4-11,36,33,30,34,31,26,98,94,68,29.85,29.62,17,4,20,0.36
2013-4-12,34,31,27,32,29,26,98,94,85,29.81,29.63,8,1,8,0.07
2013-4-13,39,31,24,29,27,21,97,85,60,29.93,29.81,13,3,14,0.08
2013-4-14,36,32,28,36,30,26,98,92,80,29.91,29.40,23,9,25,0.00
2013-4-15,38,35,31,32,30,26,88,81,75,29.95,29.53,24,10,24,0.19
2013-4-16,45,36,31,32,30,27,93,78,59,30.27,29.94,12,2,12,0.00
2013-4-17,38,35,29,35,32,28,97,90,79,30.28,29.84,16,3,16,0.59
2013-4-18,35,32,31,34,32,30,98,98,97,29.87,29.46,14,3,14,0.09
2013-4-19,38,32,26,31,27,20,98,83,56,29.96,29.46,17,4,17,0.15
2013-4-20,45,30,13,24,18,12,94,65,33,30.28,29.96,6,1,6,0.32
2013-4-21,51,41,33,46,38,22,97,88,64,30.29,29.98,20,5,20,0.30
2013-4-22,41,36,32,38,34,31,98,93,77,30.16,30.04,8,1,8,0.15
2013-4-23,41,34,25,32,28,20,98,80,54,30.13,30.03,10,1,10,0.76
2013-4-24,48,34,19,36,29,17,96,82,55,30.05,29.87,20,4,20,0.00
2013-4-25,52,40,32,36,32,29,92,74,44,30.18,29.96,11,4,12,0.00
2013-4-26,71,55,39,51,42,33,95,64,34,30.06,29.93,16,4,17,0.03
2013-4-27,74,56,33,50,43,32,98,67,32,30.06,29.83,12,2,12,0.00
2013-4-28,80,62,51,56,49,45,89,65,34,29.83,29.55,20,6,20,0.08
2013-4-29,74,61,46,58,50,40,97,70,47,29.73,29.46,11,2,11,0.00
2013-4-30,71,63,52,60,48,31,87,61,30,29.88,29.33,20,5,20,0.00
2013-5-1,55,39,33,42,36,32,98,89,53,30.43,29.88,11,2,12,0.60
2013-5-2,47,38,33,34,31,28,98,78,52,30.50,30.35,12,2,12,0.28
2013-5-3,37,34,31,34,30,26,95,87,69,30.36,30.10,11,2,12,0.24
2013-5-4,51,41,33,45,38,31,96,90,76,30.12,30.06,8,1,8,0.10
2013-5-5,65,48,39,50,42,37,96,81,56,30.12,30.01,6,1,8,0.00
2013-5-6,74,56,37,53,46,37,98,73,40,30.06,29.93,8,1,8,0.00
2013-5-7,78,60,40,58,48,40,98,69,34,29.99,29.87,9,1,9,0.00
2013-5-8,77,62,49,59,52,47,96,74,36,29.92,29.84,7,1,11,0.09
2013-5-9,60,52,43,56,49,32,97,87,65,30.01,29.86,14,2,14,0.09
2013-5-10,67,51,37,46,33,25,84,54,21,30.05,29.82,8,1,8,0.00
2013-5-11,53,47,34,46,30,22,86,53,31,30.12,29.81,20,4,20,0.00
2013-5-12,58,41,24,34,25,18,96,60,21,30.18,30.04,11,2,11,0.00
2013-5-13,74,55,30,49,37,28,93,54,31,30.07,29.59,20,4,20,0.00
2013-5-14,97,73,43,58,47,29,96,45,15,29.61,29.35,22,4,22,0.00
2013-5-15,77,64,43,52,48,39,91,58,37,29.83,29.58,10,2,12,0.00
2013-5-16,82,67,44,54,46,36,92,51,25,29.84,29.75,14,2,14,0.00
2013-5-17,68,57,54,56,52,36,98,86,32,29.91,29.79,16,6,16,0.03
2013-5-18,81,66,55,68,60,54,99,84,59,29.95,29.69,17,4,17,1.85
2013-5-19,80,69,62,70,64,60,99,88,66,29.71,29.43,15,4,21,1.17
2013-5-20,71,65,57,63,60,55,97,86,64,29.53,29.40,18,4,18,0.81
2013-5-21,66,59,52,60,56,51,99,91,70,29.61,29.42,12,2,12,0.01
2013-5-22,52,50,47,51,49,46,98,96,88,29.91,29.60,8,1,8,0.39
2013-5-23,66,53,41,47,40,35,91,65,34,30.28,29.91,11,1,11,0.00
2013-5-24,68,53,34,52,43,32,97,71,40,30.33,30.10,12,3,14,0.26
2013-5-25,59,54,51,52,49,44,97,83,70,30.20,30.14,17,6,19,0.09
2013-5-26,56,53,50,51,46,42,87,78,68,30.15,29.96,20,7,21,0.00
2013-5-27,57,55,52,56,53,50,98,93,84,29.98,29.75,15,6,17,0.13
2013-5-28,60,55,52,59,55,52,99,99,98,29.76,29.64,13,2,13,0.12
2013-5-29,74,63,52,71,62,52,100,94,85,29.74,29.55,12,3,14,0.40
2013-5-30,74,68,64,66,64,61,99,86,70,29.59,29.41,21,5,21,0.13
2013-5-31,77,67,58,63,59,50,96,75,46,29.47,29.42,22,5,24,0.11
2013-6-1,71,59,51,62,54,45,97,84,68,29.86,29.46,9,2,12,0.03
2013-6-2,67,55,43,47,44,41,94,66,40,30.01,29.86,11,2,11,0.00
2013-6-3,69,58,38,52,45,38,99,67,37,30.01,29.84,12,2,13,0.00
2013-6-4,62,58,54,55,51,48,92,78,63,30.00,29.92,14,5,14,0.01
2013-6-5,68,57,53,61,55,50,97,91,71,29.98,29.85,9,2,11,0.05
2013-6-6,56,53,51,54,52,50,97,94,90,29.97,29.88,5,1,7,0.00
2013-6-7,68,58,51,57,53,50,97,84,61,29.99,29.84,6,0,6,0.00
2013-6-8,70,62,53,58,55,51,97,78,58,29.85,29.79,10,2,12,0.00
2013-6-9,69,60,56,64,58,55,98,93,84,29.82,29.66,17,5,17,0.67
2013-6-10,77,65,56,66,61,54,99,90,68,29.78,29.72,7,1,8,0.00
2013-6-11,81,67,53,71,63,52,99,90,70,29.81,29.69,6,1,8,0.04
2013-6-12,70,66,63,69,64,57,99,94,81,29.83,29.67,11,1,12,1.36
2013-6-13,80,66,52,61,56,50,96,71,46,30.01,29.83,10,1,10,0.00
2013-6-14,78,68,53,64,59,51,97,75,58,29.99,29.78,19,3,19,0.00
2013-6-15,77,69,56,70,64,55,98,87,67,29.84,29.74,12,1,14,0.35
2013-6-16,85,67,49,63,56,48,99,73,33,29.85,29.76,10,1,13,0.01
2013-6-17,82,69,53,63,58,52,98,69,43,29.90,29.78,10,1,13,0.00
2013-6-18,74,62,55,63,56,52,90,82,70,30.00,29.90,7,1,8,0.00
2013-6-25,76,76,75,74,73,73,93,92,92,29.61,29.60,5,1,5,0.00
2013-6-26,87,76,65,77,71,63,99,84,57,29.72,29.54,9,1,10,0.00
2013-6-27,85,74,61,70,63,57,99,74,41,29.73,29.69,12,1,12,0.00
2013-6-28,79,68,57,65,61,55,97,79,59,29.72,29.66,13,2,13,0.06
2013-6-29,77,67,55,64,60,53,97,80,47,29.89,29.65,7,1,8,0.27
2013-6-30,83,64,46,60,54,45,98,74,38,30.03,29.89,8,0,8,0.00
2013-7-1,86,68,49,67,57,48,99,72,37,30.10,30.03,5,0,7,0.00
2013-7-2,84,69,49,64,57,48,98,70,39,30.07,29.96,7,1,7,0.00
2013-7-3,88,69,50,66,56,48,99,71,28,29.99,29.86,8,1,8,0.00
2013-7-4,87,75,62,67,60,56,86,62,37,29.88,29.77,14,2,14,0.00
2013-7-5,86,77,67,69,63,59,81,64,49,29.81,29.70,12,3,14,0.16
2013-7-6,89,79,71,70,65,62,75,64,50,29.78,29.70,12,3,14,0.00
2013-7-7,93,81,71,78,70,65,95,71,53,29.76,29.68,12,1,12,0.01
2013-7-8,93,77,64,74,70,63,98,81,49,29.88,29.76,5,0,5,0.01
2013-7-9,84,76,69,75,70,67,98,85,70,29.84,29.65,22,2,22,0.57
2013-7-10,82,69,56,67,60,54,96,74,47,29.96,29.81,8,1,9,0.00
2013-7-11,85,70,51,71,58,50,99,70,40,30.03,29.89,9,1,9,0.00
2013-7-12,87,76,66,68,62,58,79,62,46,29.93,29.81,13,3,16,0.00
2013-7-13,75,71,63,69,64,59,98,80,61,29.98,29.82,19,4,19,6.68
2013-7-14,86,75,66,70,66,62,97,77,54,30.09,29.97,10,2,11,0.00
2013-7-15,89,78,64,75,69,62,97,76,54,30.14,30.05,7,1,8,0.00
2013-7-16,91,81,71,77,73,70,96,80,58,30.11,30.06,8,1,9,0.00
2013-7-17,92,80,67,78,72,66,99,81,56,30.15,30.00,7,1,8,0.00
2013-7-18,90,82,74,77,73,70,95,74,58,30.00,29.67,11,3,13,0.00
2013-7-19,83,77,61,73,68,60,96,74,50,29.79,29.62,10,2,10,0.03
2013-7-20,84,70,59,69,63,58,98,81,53,29.86,29.77,4,0,4,0.00
2013-7-21,80,69,58,71,63,55,95,83,72,29.86,29.70,10,3,11,0.16
2013-7-22,86,74,62,75,67,58,96,81,57,29.75,29.57,9,2,9,0.00
2013-7-23,78,66,52,61,56,52,98,74,46,29.90,29.75,7,0,9,0.00
2013-7-25,85,75,66,70,67,64,91,76,56,29.88,29.80,7,2,9,0.05
2013-7-26,72,64,56,64,57,48,98,80,62,29.99,29.80,9,1,11,0.01
2013-7-27,64,56,51,53,50,47,93,80,58,29.99,29.86,9,1,9,0.05
2013-7-28,74,58,44,58,51,43,97,79,53,30.00,29.89,7,1,7,0.00
2013-7-29,78,63,44,63,55,43,98,77,49,30.06,29.99,8,1,8,0.00
2013-7-30,73,66,60,67,62,57,96,87,74,30.01,29.96,4,0,5,0.03
2013-7-31,79,66,52,70,62,50,98,87,53,30.00,29.90,11,1,12,0.08
2013-8-1,83,65,44,67,56,44,99,77,43,29.97,29.78,5,0,6,0.00
2013-8-2,79,64,49,65,56,48,99,77,46,29.96,29.77,7,0,7,0.00
2013-8-3,80,62,43,63,52,42,98,75,39,30.12,29.96,6,0,6,0.00
2013-8-4,74,60,42,62,54,41,99,81,60,30.15,29.93,3,0,4,0.00
2013-8-5,82,67,58,71,63,55,99,89,66,29.94,29.70,7,1,7,1.03
2013-8-6,84,67,50,71,62,49,99,85,61,29.77,29.60,12,1,13,0.04
2013-8-7,78,65,51,62,57,49,98,79,44,29.95,29.70,7,1,9,0.00
2013-8-8,76,61,50,64,57,49,98,87,59,29.98,29.91,7,0,8,0.04
2013-8-9,76,62,49,66,55,48,99,80,50,30.05,29.92,9,1,9,0.01
2013-8-10,77,65,53,64,58,51,98,80,48,30.11,30.00,6,0,6,0.00
2013-8-11,84,68,58,69,63,57,96,84,54,30.01,29.90,4,0,5,0.00
2013-8-12,79,66,54,66,58,53,99,79,48,29.97,29.91,10,1,10,0.00
2013-8-13,78,63,49,58,53,47,98,75,40,30.11,29.97,7,0,7,0.00
2013-8-14,78,60,43,61,52,42,98,78,46,30.13,30.03,7,1,9,0.00
2013-8-15,81,63,46,65,54,45,98,78,43,30.06,30.00,6,1,8,0.00
2013-8-16,80,64,46,64,56,45,98,79,44,30.12,30.05,7,1,7,0.00
2013-8-17,81,65,50,63,56,49,99,77,45,30.13,30.02,12,1,12,0.00
2013-8-18,82,70,59,64,60,55,91,72,50,30.06,29.92,11,2,11,0.00
2013-8-19,85,73,63,72,65,58,88,78,60,29.95,29.80,9,2,11,0.00
2013-8-20,88,78,68,76,71,65,93,79,65,29.82,29.75,13,2,13,0.00
2013-8-21,85,76,70,77,72,68,97,88,75,29.88,29.73,8,1,11,0.05
2013-8-22,89,73,57,70,62,55,98,71,38,30.01,29.88,8,1,11,0.00
2013-8-23,86,71,54,71,64,53,97,81,57,30.05,29.94,8,1,9,0.00
2013-8-24,88,77,69,75,70,65,89,79,64,29.98,29.84,15,4,17,0.00
2013-8-25,92,83,75,78,74,70,85,75,61,29.92,29.82,14,4,17,0.00
2013-8-26,92,83,75,80,75,72,91,78,62,29.88,29.73,11,3,11,0.00
2013-8-27,95,83,73,81,75,70,93,78,58,29.79,29.68,7,1,8,0.00
2013-8-28,92,76,61,78,71,60,99,85,58,29.89,29.79,6,1,6,0.00
2013-8-29,91,81,72,78,73,70,97,80,52,29.89,29.74,12,2,12,0.00
2013-8-30,85,75,62,72,68,60,96,81,57,29.81,29.70,6,1,7,0.00
2013-8-31,88,72,60,73,66,59,98,84,56,29.80,29.64,9,1,9,0.10
2013-9-1,74,68,60,67,62,56,96,83,64,29.89,29.64,9,1,9,0.00
2013-9-2,68,55,41,56,50,40,98,86,65,30.02,29.88,5,0,6,0.00
2013-9-3,80,57,37,63,51,36,98,83,49,30.05,29.93,7,1,7,0.00
2013-9-4,88,69,50,74,63,49,98,82,54,30.05,29.95,5,0,6,0.00
2013-9-5,83,72,60,71,64,56,93,78,61,30.11,30.00,7,2,7,0.00
2013-9-6,88,76,68,71,68,65,96,76,49,30.01,29.76,16,2,16,0.04
2013-9-7,93,79,64,76,69,62,96,73,47,29.88,29.75,9,1,10,0.00
2013-9-8,79,70,64,69,65,61,91,83,69,29.93,29.79,12,3,12,0.00
2013-9-9,91,77,67,76,70,65,97,82,54,29.79,29.53,11,2,12,0.03
2013-9-10,82,71,63,70,66,60,98,84,58,29.89,29.65,7,1,7,0.00
2013-9-11,85,69,54,68,59,52,99,76,37,29.97,29.89,8,1,11,0.00
2013-9-12,74,56,42,57,50,40,99,82,46,30.15,29.97,9,1,9,0.00
2013-9-13,72,54,36,54,45,35,97,75,42,30.22,30.03,6,1,6,0.00
2013-9-14,73,59,49,56,50,45,97,74,45,30.03,29.79,11,2,11,0.53
2013-9-15,67,58,46,60,54,44,99,90,70,30.24,29.80,6,1,8,0.46
2013-9-16,68,51,34,51,44,33,98,78,45,30.35,30.19,6,1,9,0.01
2013-9-17,65,56,43,58,51,41,96,86,70,30.20,29.87,14,3,14,0.00
2013-9-18,76,68,59,71,66,58,98,93,81,29.88,29.61,10,2,10,0.06
2013-9-19,78,70,61,72,67,58,97,88,73,29.70,29.55,12,2,12,0.23
2013-9-20,64,57,46,58,52,45,96,86,66,29.87,29.70,9,2,12,0.01
2013-9-21,67,51,40,53,46,39,98,84,54,29.93,29.84,5,0,6,0.00
2013-9-22,74,58,41,58,51,40,98,80,54,29.91,29.78,14,3,15,0.01
2013-9-23,73,61,51,57,52,48,90,74,50,29.88,29.78,13,3,15,0.00
2013-9-24,76,60,46,60,52,45,97,78,48,29.89,29.82,9,1,10,0.00
2013-9-25,74,59,46,58,52,45,98,79,51,29.90,29.79,11,2,11,0.00
2013-9-26,81,67,55,64,58,51,89,73,53,29.84,29.74,15,4,19,0.00
2013-9-27,83,72,65,66,62,60,85,72,52,29.83,29.70,14,4,16,0.00
2013-9-28,70,59,41,64,54,40,97,86,74,29.88,29.55,15,3,15,0.14
2013-9-29,75,59,40,52,46,38,98,67,36,29.91,29.74,12,2,15,0.00
2013-9-30,78,66,57,57,52,48,75,60,43,29.74,29.51,20,6,20,0.00
2013-10-1,76,62,38,56,46,36,94,61,25,29.92,29.52,17,2,17,0.00
2013-10-2,76,57,35,55,44,34,98,69,28,29.98,29.75,15,2,15,0.38
2013-10-3,60,58,56,59,57,55,99,98,95,29.84,29.73,12,1,12,0.10
2013-10-4,57,56,55,57,56,54,99,98,96,29.89,29.73,19,3,19,0.27
2013-10-5,61,53,36,60,50,35,100,91,68,29.77,29.65,16,2,17,0.04
2013-10-6,55,46,37,51,45,36,99,96,82,29.80,29.63,6,1,7,0.09
2013-10-7,70,49,35,53,43,34,99,82,40,29.92,29.79,6,1,6,0.00
2013-10-8,76,62,44,51,47,43,97,61,37,29.92,29.76,18,4,22,0.00
2013-10-9,75,65,55,56,51,48,81,63,44,29.95,29.85,14,4,15,0.00
2013-10-10,77,63,53,58,51,46,77,65,42,29.95,29.79,15,3,15,0.00
2013-10-11,74,64,54,62,55,51,97,74,54,29.79,29.55,23,5,24,0.31
2013-10-12,58,49,33,56,43,31,97,81,51,30.13,29.63,22,4,25,0.00
2013-10-13,63,43,26,51,36,26,98,80,41,30.39,30.13,6,0,6,0.00
2013-10-14,54,48,36,48,42,36,98,80,59,30.33,29.89,14,4,15,0.46
2013-10-15,53,49,46,53,48,46,99,98,96,29.90,29.61,21,4,21,0.63
2013-10-16,54,43,32,45,41,30,99,92,64,29.90,29.75,8,1,10,0.02
2013-10-17,60,44,31,46,40,30,98,87,51,29.84,29.71,7,1,9,0.05
2013-10-18,54,42,31,42,36,28,97,82,46,29.93,29.80,10,1,10,0.04
2013-10-19,47,37,26,42,35,26,98,93,77,29.80,29.64,10,1,11,0.07
2013-10-20,50,36,26,43,34,25,99,93,73,29.84,29.56,10,2,13,0.03
2013-10-21,40,32,20,35,26,19,94,76,58,29.93,29.84,11,2,14,0.00
2013-10-22,40,33,18,35,29,16,96,86,72,30.01,29.92,5,0,6,0.00
2013-10-23,39,33,25,32,27,22,96,80,57,30.07,29.98,10,1,10,0.00
2013-10-24,43,34,24,32,27,22,94,75,58,30.29,30.07,8,1,10,0.00
2013-10-25,57,42,18,42,34,17,97,75,53,30.30,29.76,15,5,21,0.00
2013-10-26,50,41,27,42,32,24,89,70,53,30.05,29.76,9,2,11,0.00
2013-10-27,60,42,24,38,31,22,95,70,39,30.07,29.76,11,2,12,0.00
2013-10-28,45,37,26,32,25,21,86,65,48,30.36,30.07,11,1,13,0.00
2013-10-29,44,37,26,37,30,22,92,77,68,30.36,30.03,9,2,13,0.03
2013-10-30,50,45,39,50,44,37,99,97,92,30.04,29.67,8,2,11,0.10
2013-10-31,50,41,39,49,40,38,99,97,95,29.56,29.35,9,2,11,0.03
2013-11-1,52,42,33,41,38,29,97,85,62,29.81,29.36,11,1,11,0.00
2013-11-2,50,37,28,38,32,26,96,83,53,30.06,29.81,8,1,8,0.00
2013-11-3,54,44,32,38,34,30,97,71,46,30.07,29.83,20,5,22,0.00
2013-11-4,48,41,26,45,36,25,96,83,65,30.11,29.77,14,3,17,0.13
2013-11-5,44,32,20,41,30,19,98,91,70,30.21,29.97,9,0,9,0.06
2013-11-6,37,32,28,32,30,25,97,91,76,30.15,29.96,9,2,10,0.20
2013-11-7,34,29,20,31,27,19,97,93,86,30.21,30.14,10,2,12,0.01
2013-11-8,45,31,19,42,28,18,97,90,67,30.18,29.58,17,3,18,0.00
2013-11-9,45,40,33,42,34,28,89,80,65,30.17,29.60,17,5,20,0.00
2013-11-10,42,38,35,33,31,29,86,77,66,30.30,30.04,10,2,11,0.00
2013-11-11,38,24,10,33,17,5,93,73,55,30.70,30.07,10,2,14,0.00
2013-11-12,28,16,5,15,10,3,93,78,51,30.79,30.46,9,2,10,0.00
2013-11-13,50,36,21,37,26,15,78,68,55,30.45,29.85,18,5,20,0.00
2013-11-14,51,37,22,40,32,21,95,82,65,29.85,29.72,9,2,9,0.00
2013-11-15,56,40,20,46,34,19,98,82,55,29.82,29.59,13,2,13,0.00
2013-11-16,51,45,41,50,43,36,99,93,76,29.60,29.16,12,3,15,0.14
2013-11-17,43,38,31,40,35,26,97,89,81,29.79,29.25,15,4,16,0.00
2013-11-18,37,28,16,27,22,14,94,80,62,30.24,29.79,12,3,14,0.00
2013-11-19,46,34,16,32,26,14,95,74,55,30.24,29.89,22,4,22,0.00
2013-11-20,44,41,37,35,31,26,90,68,50,29.95,29.84,22,5,22,0.00
2013-11-21,37,29,23,36,27,18,96,92,79,30.47,30.03,8,2,11,0.00
2013-11-22,31,21,6,18,13,4,93,74,49,30.61,30.43,14,2,14,0.00
2013-11-23,19,9,0,8,3,-3,90,76,52,30.84,30.60,10,1,10,0.00
2013-11-24,30,18,0,18,10,-3,92,72,55,30.73,30.01,21,6,22,0.00
2013-11-25,41,33,26,31,25,17,85,72,63,30.05,29.91,22,5,22,0.00
2013-11-26,30,20,10,23,10,4,79,63,50,30.36,30.04,11,3,19,0.00
2013-11-27,25,15,1,13,8,-2,90,73,55,30.38,30.07,12,2,12,0.00
2013-11-28,29,19,4,18,11,1,89,74,59,30.50,30.06,8,1,8,0.00
2013-11-29,34,22,4,23,16,1,92,77,55,30.51,30.13,13,2,14,0.00
2013-11-30,33,26,18,28,22,15,91,85,79,30.13,30.01,8,1,11,0.00
2013-12-1,35,24,10,29,20,8,95,87,71,30.17,29.90,4,0,4,0.00
2013-12-2,39,34,26,34,31,25,96,90,80,29.90,29.54,15,4,15,0.14
2013-12-3,35,34,32,34,33,31,98,97,95,29.73,29.53,9,2,10,0.07
2013-12-4,32,28,12,32,27,9,98,96,88,29.71,29.42,19,4,19,0.00
2013-12-5,11,5,-2,9,1,-6,89,84,76,30.38,29.71,16,7,18,0.00
2013-12-6,3,-4,-9,-2,-8,-12,85,82,74,30.69,30.37,12,3,12,0.00
2013-12-7,2,-7,-14,-5,-11,-18,87,82,71,30.78,30.61,8,2,9,0.00
2013-12-8,13,8,-3,11,5,-6,91,89,86,30.61,30.03,13,3,13,0.00
2013-12-9,11,0,-8,9,-4,-12,91,83,74,30.14,29.89,16,4,16,0.00
2013-12-10,16,8,3,13,4,-2,91,84,75,30.28,29.79,15,6,17,0.00
2013-12-11,8,-4,-11,3,-9,-15,84,77,69,30.59,30.28,13,3,13,0.00
2013-12-12,20,12,2,13,8,-3,90,83,73,30.35,30.14,8,2,10,0.00
2013-12-13,17,14,9,12,10,6,92,84,76,30.26,30.11,12,2,13,0.00
2013-12-14,16,10,-1,11,6,-5,89,84,77,30.26,30.09,10,2,15,0.01
2013-12-15,6,2,-3,-2,-4,-7,83,74,61,30.18,30.11,6,1,6,0.00
2013-12-16,24,11,1,21,7,-5,94,84,73,30.15,29.94,10,3,12,0.00
2013-12-17,31,21,0,27,16,-3,89,82,67,30.10,29.90,16,4,17,0.00
2013-12-18,38,22,0,30,17,-3,95,84,67,30.06,29.64,12,2,13,0.03
2013-12-19,22,18,12,20,14,10,96,85,72,30.04,29.78,8,1,9,0.00
2013-12-20,21,18,17,16,14,13,89,85,79,30.00,29.84,6,1,8,0.00
2013-12-21,32,19,16,18,16,12,89,85,75,29.97,29.83,6,0,7,0.01
2013-12-22,20,13,0,16,10,-3,89,87,81,30.25,29.92,10,2,10,0.00
2013-12-23,2,-3,-8,-2,-8,-13,86,79,71,30.54,30.25,10,3,11,0.00
2013-12-24,11,-1,-16,7,-6,-20,89,78,52,30.54,30.16,11,3,14,0.00
2013-12-25,29,17,10,26,14,7,93,86,69,30.17,30.04,12,3,12,0.00
2013-12-26,29,18,5,23,15,2,93,88,79,30.16,30.06,3,0,4,0.00
2013-12-27,39,27,3,32,24,1,97,88,75,30.16,29.89,13,3,14,0.12
2013-12-28,47,31,17,34,27,15,97,86,58,29.96,29.60,14,2,15,0.12
2013-12-29,22,-1,-19,20,-8,-24,91,74,57,30.33,29.94,11,3,15,0.00
2013-12-30,2,-10,-21,-2,-14,-25,87,82,78,30.33,30.23,6,1,8,0.00
2013-12-31,2,-9,-18,-4,-13,-23,87,81,72,30.44,30.25,4,0,4,0.00
2014-1-1,4,-2,-8,-4,-8,-12,84,74,65,30.52,30.42,8,1,8,0.00
2014-1-2,32,-6,-20,32,-13,-25,85,72,54,30.53,30.41,5,0,5,0.00